Regional Weather Roundup
Issued by NWS Wakefield, VA

Home | Current Version | Previous Version | Graphics & Text | Print | Product List | Glossary On
Versions: 1 2 3 4 5 6 7 8 9 10 11 12 13 14 15 16 17 18 19 20 21 22 23 24 25 26 27 28 29 30 31 32 33 34 35 36 37 38 39 40 41 42 43 44 45 46 47 48
848
ASUS41 KAKQ 130715
RWRAKQ

REGIONAL WEATHER ROUNDUP
NATIONAL WEATHER SERVICE WAKEFIELD VA
200 AM EST SAT FEB 13 2016

Note: "fair" indicates few or no clouds below 12,000 feet with no
significant weather and/or obstructions to visibility. * = Denotes
station may not report precipitation (e.g., rain,snow,etc.),
thunder or fog.

VAZ042-051-052>054-056-130800-
NORTHERN VIRGINIA

CITY           SKY/WX    TMP DP  RH WIND       PRES   REMARKS
WASH NATIONAL  FAIR      27  13  55 NW8       30.01S
DULLES         CLOUDY    26  12  55 W22G33    30.00R WCI  12
FORT BELVOIR   FAIR      20  16  83 NW1       30.01S
QUANTICO       FAIR      26  18  71 NW3       30.03S
FREDERICKSBRG* FAIR      26  22  87 W3        30.02S
STAFFORD*      FAIR      22  17  79 SW5       30.05S
WARRENTON      FAIR      24  20  83 CALM      29.99F
CULPEPER*      FAIR      21  19  91 CALM      30.01F
MANASSAS*      CLOUDY    25  21  86 CALM      30.01S
LEESBURG*      CLOUDY    28  18  64 W17G25    30.00R WCI  16
WINCHESTER     CLOUDY    25  14  63 NW20G39   29.98R WCI  11
FRONT ROYAL*   CLOUDY    25  19  80 NW6       29.99R
LURAY*         LGT SNOW  25  16  68 NW14G20   30.00R WCI  13
$$

VAZ048-049-060>072-079>083-130800-
CENTRAL AND SOUTH CENTRAL VIRGINIA

CITY           SKY/WX    TMP DP  RH WIND       PRES   REMARKS
RICHMOND       MOCLDY    24  20  84 N3        30.01S
CHESTERFIELD*  FAIR      21   7  53 CALM      30.02S
PETERSBURG*    CLOUDY    22  20  91 CALM      30.02S
HANOVER        CLOUDY    28  18  66 NW10G22   30.03S WCI  19
TAPPAHANNOCK*  MOCLDY    24  17  77 SE3       30.02S
QUINTON*       CLOUDY    22  20  91 CALM      30.01S
CHARLOTTSVILLE FAIR      29   4  34 W8        29.99R
GORDONSVILLE*  FAIR      28  10  45 CALM      30.00S
ORANGE*        FAIR      25  19  80 CALM      30.01F
LOUISA*        MOCLDY    27  19  74 CALM      29.99S
BUMPASS*       PTSUNNY   28  19  69 CALM      30.01S
FARMVILLE*     CLOUDY    33   8  35 N3        30.00R
CREWE*         CLOUDY    30  19  65 CALM      30.00S
FORT PICKETT*  CLOUDY    27  19  72 W3        30.00S
CHASE CITY*    PTSUNNY   32  17  54 NW6       30.01S
CLARKSVILLE*   CLOUDY    32  19  59 NW7       30.01S
SOUTH HILL*    CLOUDY    24  21  87 CALM      30.07S
LAWRENCEVILLE* CLOUDY    27  20  76 W3        30.02R
EMPORIA*       CLOUDY    28  19  69 SW3       30.04S
$$

VAZ088>098-130800-
SOUTHEAST VIRGINIA

CITY           SKY/WX    TMP DP  RH WIND       PRES   REMARKS
NORFOLK        FAIR      29  20  69 CALM      30.01S
VIRGINIA BEACH FAIR      27  21  78 W5        30.01S
NORFOLK NAVAL  FAIR      28  21  75 W8        30.02F
WEST POINT*    FAIR      26  21  81 CALM      30.04R
SALUDA*        FAIR      23  20  91 CALM      30.01S
NEWPORT NEWS   CLOUDY    25  22  88 CALM      30.02S
LANGLEY AFB    CLOUDY    25  21  83 W6        30.00F
FORT EUSTIS    CLOUDY    27  24  90 W3        30.00S
WILLIAMSBURG*  MOCLDY    27  25  93 W6        30.02F
HR EXEC AP*    FAIR      16  12  86 CALM      30.04S
FRANKLIN*      CLOUDY    25  21  85 N5        30.03S
US460-WAKEFLD  FAIR      21  17  84 CALM      30.02S
$$

VAZ020-022-025-037-045-130800-
WEST CENTRAL AND SOUTHWEST VIRGINIA

CITY           SKY/WX    TMP DP  RH WIND       PRES   REMARKS
STAUNTON*      MOCLDY    30   7  38 W14G26    29.99R WCI  19
WAYNESBORO*    CLOUDY    25   3  39 NW15G30   29.95S WCI  12
HOT SPRINGS VA LGT SNOW  14   8  79 NW23G32   29.79R WCI  -5
LYNCHBURG      MOCLDY    29  11  47 W13G24    30.01R WCI  19
DANVILLE       FAIR      34  15  46 NW10      30.03R
SOUTH BOSTON*  PTSUNNY   33  16  49 NW7       30.03R
MARTINSVILLE   CLOUDY    30  13  48 NW14G24   30.06R WCI  19
ROANOKE        FAIR      27  10  49 W17G35    30.03R WCI  14
BLACKSBURG     LGT SNOW  23  19  84 NW12G30   30.02R WCI  11
DUBLIN*        MOCLDY    25  11  56 W22G33    30.02R WCI  10
MARION*        FLURRIES  23  13  67 NW22G30   30.04R WCI   8
HILLSVILLE*    MOCLDY    22  11  63 NW35G48   29.91S WCI   3
RICHLANDS*     CLOUDY    19   9  63 NW13G29   30.07R HAZE    WCI   7
WISE*          CLOUDY    21   9  58 W12G20    30.11S WCI   9
ABINGDON*      MOCLDY    26   8  45 NW10G21   30.11R WCI  17
$$

MDZ021>025-VAZ099-100-130800-
SOUTHERN MARYLAND AND THE DELMARVA PENINSULA

CITY           SKY/WX    TMP DP  RH WIND       PRES   REMARKS
PATUXENT RIVER PTCLDY    24  14  65 W7        30.00F
BAY BRIDGE APT   N/A     28  18  64 W9        29.99S
LEONARDTOWN    MOCLDY    23  16  74 W3          N/A
DOVER          MOCLDY    24  20  85 W6        29.96S
GEORGETOWN     CLEAR     21  17  84 W5        29.98F
EASTON         PTCLDY    28  18  67 NW9G20    30.02F
CAMBRIDGE      CLEAR     28  14  54 NW13G20   29.98F WCI  18
SALISBURY      PTCLDY    23  19  85 W3        29.99S
OCEAN CITY     CLOUDY    23  19  85 W7        29.99S
WALLOPS ISLAND CLOUDY    23  20  88 CALM      30.01R
ACCOMACK*      CLOUDY    28  19  69 NW8       30.00S
$$

NCZ012>017-030>032-130800-
NORTH CENTRAL AND EASTERN NORTH CAROLINA

CITY           SKY/WX    TMP DP  RH WIND       PRES   REMARKS
ROANOKE RAPIDS FAIR      28  23  80 W5        30.03S
RALEIGH        MOCLDY    30  22  72 CALM      30.04R
ELIZABETH CITY CLEAR     23  21  92 NW5       30.02S
AHOSKIE*       NOT AVBL
EDENTON*       CLOUDY    32  27  82 NW7       30.02F
CURRITUCK*     PTCLDY    25  25  99 N3        30.02F
KILL DEVIL HLS PTCLDY    28  26  93 NW6       30.00S
MANTEO         PTCLDY    30  27  89 NW7       30.02R
CAPE HATTERAS  CLOUDY    34  29  82 NW13G18   30.02R WCI  25
TARBORO*       PTSUNNY   29  26  88 CALM      30.05S
GOLDSBORO      CLEAR     28  28 100 W5        30.02S
WASHINGTON     PTCLDY    28  25  89 CALM      30.04R
GREENVILLE     CLEAR     28  27  93 W3        30.06S
NEW BERN       CLOUDY    32  29  88 W7        30.05R
WILMINGTON     CLOUDY    31  29  92 NW7       30.05S FOG
$$

VAZ048-130800-
ELSEWHERE

CITY           SKY/WX    TMP DP  RH WIND       PRES   REMARKS
HARRISBURG PA  PTCLDY    20  12  71 NW7       29.93F
BALTIMORE      PTCLDY    20  15  81 W6        29.98F
ANNAPOLIS      CLEAR     25  17  72 W3        29.99F
ANDREWS AFB    FAIR      25  14  62 NW12      29.98S WCI  15
PHILADELPHIA   CLOUDY    23  15  71 W10       29.96F WCI  12
HENDERSON NC   PTCLDY    32  17  54 CALM      30.02S
GREENSBORO     MOCLDY    34  16  47 NW17      30.01S WCI  23
ROCKY MOUNT    MOCLDY    28  25  88 W3        30.04S
$$

VAZ100-130800-
MARINE

STATION/POSITION TIME  TEMP    WIND        PRES    WAVE   SWELL
                       AIR SEA DIR/SP/G            HT/PER HT/PER
                 (UTC) (F)     (DEG/KT/KT) (MB)    (FT/S) (FT/S)
BRANDYWINE LGT   0600   25     280/ 15/ 18 1014.9F
CAPE MAY NJ      0600   26 38  280/ 12/ 14 1014.6F
LEWES DE         0600   22 38  250/  4/  6 1015.1F
15NM E FENWICK I 0650   29 42              1014.8F   2/ 3
OCEAN-CITY-INLET 0600   24 40  300/  5/  6 1014.5F
WACHAPREAGUE VA  0600   25 37   CALM  /  2 1015.8S
THOMAS POINT MD  0700   27 36  290/  9/ 11 1016.4F
GOOSES REEF MD   0700   29 37  300/ 10/ 14 1016.9F   1
COVE POINT MD    0600   27     330/  7/ 10 1016.6F
SOLOMONS ISLAND  0600   28 39  320/  5/  8   N/A
BISHOPS HEAD MD  0606   29 33  310/ 14/ 18 1015.1R
PINEY POINT MD   0600          360/ 13/ 15   N/A
POTOMAC MD       0700   29 38  350/ 10/ 12 1015.0F   1/ 2
CAMBRIDGE MD     0600   28 37  270/  5/  9 1015.2F
LEWISETTA VA     0600   28 38  320/  6/  8 1016.0S
RAPPAHANNOCK LGT 0600          290/ 16/ 18 1016.2R
STINGRAY PT      0700   29 39  280/ 10/ 14 1015.9F   1
YORK RVR RNG VA  0600   29     290/ 11/ 14 1015.5F
YORKTOWN VA      0600   28 41  270/  6/  7 1016.1S
JAMESTOWN VA     0700   28 41  260/  4/  6   N/A     0
DOMINION TERM VA 0600   30     310/ 14/ 18 1016.3R
KIPTOPEKE VA     0600      40  300/ 16/ 20   N/A
CHES BAY BRIDGE  0600   30 41  270/ 13/ 17 1016.0R
CAPE HENRY VA    0600   29     290/ 14/ 17   N/A
CHESAPEAKE LGHT  0600   30     300/ 18/ 21 1016.7R
WILLOUBY STN VA  0600   29     300/  9/ 11 1017.2R
CAPE HENRY BUOY  0628      42                N/A     3/ 4
1ST LANDING BUOY 0700      41                N/A     2/ 4
CAPE CHARLES BUO 0626      42                N/A     2/ 4   2/ 9
OFFSHORE WE BUOY 0621      44                N/A     3/ 4   2/10
64NM E OF VA BCH 0650   36 48  320/ 23/ 29 1014.6R   4/ 5
DUCK PIER NC     0600   28     300/ 12/ 15 1015.7R
44100 DUCK FRF   0624      45                N/A     3/ 4
44056 DUCK FRF   0611      42                N/A     2/ 7
OREGON INLET NC  0600   31 40  310/  9/ 13 1016.0R
HATTERAS NC      0600   35 45  300/ 16/ 19 1015.9R
DIAMOND SHLS NC  0650   42 71  320/ 19/ 23 1015.8F   5/ 8   3/ 8
$$




USA.gov is the U.S. government's official web portal to all federal, state and local government web resources and services.